sat.trackr.live / text

‹ back to catalog

2025-313AK

NORAD 67281 · 2025-313AK

PAYLOAD ACTIVE UNKNOWN

§ Identity

Operator
Country
TBD
Launch date
2025-12-28
Launch site
VOSTO
Launch vehicle
Mass (kg)
RCS (m²)

External: N2YO · Heavens-Above · Gunter

§ Orbital elements

Epoch: 2026-05-25T03:07:16.953312Z

Period
94.60 min
Inclination
97.3884°
Eccentricity
0.0013607
Mean motion
15.22274839 rev/d
Perigee alt
489.6 km
Apogee alt
508.3 km
Semi-major
6,877.1 km
B*
2.0837e-4
RAAN
220.0427°
Arg perigee
83.7440°
Mean anomaly
276.5346°
Rev number
2,244

§ Raw data

2025-313AK1 67281U 25313AK  26145.13005733  .00004738  00000+0  20837-3 0  99922 67281  97.3884 220.0427 0013607  83.7440 276.5346 15.22274839 22443

JSON: /api/v1/satellites/67281 · /tle

For live sub-satellite position, see the globe view (requires WebGL).

§ Visibility from observer

Set your observer location to see the next 7 days of passes ≥ 10°. The values pass through the URL so the page stays shareable.

No JS? Fill the form by hand. The geolocation button needs JavaScript.